Regional Weather Roundup
Issued by NWS

Home | Current Version | Previous Version | Text Only | Print | Product List | Glossary On
Versions: 1 2 3 4 5 6 7 8 9 10 11 12 13 14 15 16 17 18 19 20 21 22 23 24 25 26 27 28 29 30 31 32 33 34 35 36 37 38 39 40 41 42 43 44 45 46 47 48 49 50
258
ASUS43 KDTX 110410
RWRMI
MICHIGAN HOURLY REGIONAL WEATHER ROUNDUP
NATIONAL WEATHER SERVICE DETROIT/PONTIAC MI
ISSUED BY NATIONAL WEATHER SERVICE GRAND RAPIDS MI
1100 PM EST SAT DEC 10 2016

NOTE: "FAIR" INDICATES FEW OR NO CLOUDS BELOW 12,000 FEET WITH NO
SIGNIFICANT WEATHER AND/OR OBSTRUCTION TO VISIBILITY.

MIZ047>049-052>055-059>063-066>070-074>076-081>083-110500-
SOUTHEAST LOWER MICHIGAN

CITY           SKY/WX    TMP DP  RH WIND       PRES   REMARKS
ADRIAN         CLOUDY    24  17  74 SW7       30.39F WCI  16
ALMA           CLOUDY    22  18  84 CALM      30.36S
ANN ARBOR      CLOUDY    22  16  78 S5        30.37F WCI  16
BAD AXE        CLOUDY    19  13  77 SW5       30.36R WCI  12
DETROIT CITY   PTCLDY    25  16  68 W6        30.40S WCI  18
DETROIT        CLOUDY    24  17  74 SW6       30.40F WCI  17
FLINT          CLOUDY    22  19  89 SW7       30.36F WCI  13
GROSSE ILE     CLOUDY    25  17  69 W6        30.39F WCI  18
HILLSDALE      CLOUDY    23  16  74 S6        30.33F WCI  16
HOWELL         CLOUDY    22  17  81 S5        30.35F WCI  16

CITY           SKY/WX    TMP DP  RH WIND       PRES   REMARKS
JACKSON        LGT SNOW  22  14  71 SW7       30.35F WCI  13
LANSING        CLOUDY    23  15  71 SW8       30.35F WCI  14
MASON          CLOUDY    22  17  83 CALM      30.35F
MONROE         CLOUDY    25  18  74 SW5       30.39F WCI  20
MT. CLEMENS    CLOUDY    24  17  74 SW6       30.37S WCI  17
PONTIAC        MOCLDY    22  17  81 SW6       30.35F WCI  14
PORT HOPE        N/A     23  11  60 SW6       30.34R WCI  16
PORT HURON     CLOUDY    21  19  93 CALM      30.38S
TRI CITIES     CLOUDY    20  14  77 CALM      30.37S
YPSILANTI      MOCLDY    25  17  72 SW6       30.39F WCI  18
$$
MIZ043>046-050>051-056>058-064>065-071>073-077>080-110500-
SOUTHWEST LOWER MICHIGAN

CITY           SKY/WX    TMP DP  RH WIND       PRES   REMARKS
BATTLE CREEK   CLOUDY    22  16  78 S8        30.34F WCI  12
BENTON HARBOR  LGT SNOW  23  19  85 SE6       30.35S FOG     WCI  16
BIG RAPIDS     CLOUDY    18  13  82 S3        30.31S
COLDWATER      CLOUDY    23  19  85 S5        30.35S WCI  17
HOLLAND        LGT SNOW  22  19  89 S9        30.33S FOG     WCI  12
GRAND RAPIDS   LGT SNOW  22  17  81 S9        30.34S WCI  12
KALAMAZOO      CLOUDY    23  15  71 S12       30.35S WCI  12
MARSHALL       FLURRIES  23  16  74 S5        30.34F WCI  17
MOUNT PLEASANT CLOUDY    20  12  71 CALM      30.34F
MUSKEGON       LGT SNOW  23  20  88 E6        30.32F FOG     WCI  16
STURGIS        LGT SNOW  22  20  93 S6        30.35S WCI  15
$$
MIZ016>042-110500-
NORTHERN LOWER MICHIGAN

CITY           SKY/WX    TMP DP  RH WIND       PRES   REMARKS
ALPENA         PTCLDY    16   6  65 SW8       30.32S WCI   5
BEAVER ISLAND  FLURRIES  21  18  86 E5        30.28S WCI  15
BELLAIRE       CLOUDY    19  14  81 S5        30.33R WCI  12
CADILLAC       CLOUDY    17  11  80 CALM      30.26F
CHARLEVOIX     FLURRIES  21  16  79 S7        30.32S WCI  13
GAYLORD        CLOUDY    13   7  77 SW5       30.26S WCI   5
HOUGHTON LAKE  CLOUDY    16  11  80 S3        30.31S
MANISTEE       CLOUDY    20  14  77 SE3       30.31F
OSCODA         PTCLDY    17  10  77 MISG      30.34S
PELLSTON       LGT SNOW  19  16  88 S5        30.29S VSB 1   WCI  12
TRAVERSE CITY  CLOUDY    20  14  77 CALM      30.31F
LUDINGTON      LGT SNOW  20  16  85 E5        30.31F WCI  14
$$
MIZ007>008-015-110500-
EASTERN UPPER MICHIGAN

CITY           SKY/WX    TMP DP  RH WIND       PRES   REMARKS
KINROSS        CLEAR     10   7  87 W6        30.28R WCI   0
MACKINAC ISLAN CLOUDY    20  15  81 NW3       30.27S
NEWBERRY       CLEAR     10   6  82 W7        30.26S WCI  -1
S. S. MARIE    CLEAR     13   8  81 CALM      30.28R
$$
MIZ004>006-011>014-085-110500-
CENTRAL UPPER MICHIGAN

CITY           SKY/WX    TMP DP  RH WIND       PRES   REMARKS
MANISTIQUE     CLOUDY    11   6  78 NW7       30.29R WCI   0
ESCANABA       CLOUDY    11   6  81 NW3       30.32R
MENOMINEE        N/A     14   4  64 MISG        N/A
SAWYER-GWINN   PTCLDY     2  -1  84 CALM      30.26R
$$
MIZ001>003-009>011-084-110500-
WESTERN UPPER MICHIGAN

CITY           SKY/WX    TMP DP  RH WIND       PRES   REMARKS
IRON MOUNTAIN  CLOUDY     8   1  73 CALM      30.25S
HOUGHTON       CLOUDY    11   3  70 SW3       30.24F
COPPER HARBOR    N/A     15   9  76 SW6       30.28R WCI   6
IRONWOOD       PTCLDY    -5  -9  83 E3        30.25F
$$

ABBREVIATIONS USED IN REMARKS
   TC - TEMPERATURE IN CELSIUS
  WCI - WIND CHILL INDEX
   HX - HEAT INDEX
  VSB - VISIBILITY





USA.gov is the U.S. government's official web portal to all federal, state and local government web resources and services.